Location: Heiligenberg
(48.5381°N, 7.3897°E)
Time: 02:16:37
(UTC+00:00)

Cosmos 2219 Rocket - Pass Details

Date: 26 May 2022
Orbit: 827 x 847 km, 71.0° (Epoch: 26 June)

Event Time Altitude Azimuth Distance (km) Brightness Sun altitude
Exits shadow 00:43:10 13° 254° (WSW) 2,195 4.0 -18.3°
Maximum altitude 00:47:21 32° 311° (NW) 1,409 3.5 -18.1°
Drops below altitude 10° 00:52:20 10° 14° (NNE) 2,447 5.9 -17.8°
Sets 00:55:04 0° 25° (NNE) 3,387 7.1 -17.7°
